Location: Pedimozza
(42.0500°N, 9.3500°E)
Time: 04:27:42
(UTC+00:00)

Cosmos 1980 Rocket - Pass Details

Date: 19 August 2019
Orbit: 829 x 850 km, 71.0° (Epoch: 14 September)

Event Time Altitude Azimuth Distance (km) Brightness Sun altitude
Rises 21:32:14 0° 338° (NNW) 3,390 6.5 -29.4°
Reaches altitude 10° 21:34:43 10° 342° (NNW) 2,455 5.5 -29.6°
Enters shadow 21:39:34 55° 29° (NNE) 1,001 2.6 -30.1°
